Regional Weather Roundup
Issued by NWS Goodland, KS

Home | Current Version | Previous Version | Graphics & Text | Print | Product List | Glossary On
Versions: 1 2 3 4 5 6 7 8 9 10 11 12 13 14 15 16 17 18 19 20 21 22 23 24 25 26 27 28 29 30 31 32 33 34 35 36 37 38 39 40 41 42 43 44 45 46 47 48 49 50
000
ASUS43 KGLD 280108
RWRGLD

GOODLAND FORECAST AREA HOURLY WEATHER ROUNDUP
NATIONAL WEATHER SERVICE GOODLAND KS
700 PM MDT SUN JUL 27 2014

...OFFICIAL OBSERVATIONS...

CITY           SKY/WX    TMP DP  RH WIND       PRES   REMARKS
GOODLAND KS    SUNNY     84  47  27 SE10      30.26S
HILL CITY KS   CLEAR     86  51  29 NE9       30.18R
IMPERIAL NEB   LGT RAIN  85  48  27 NE5       30.25S
MCCOOK NEB     CLOUDY    84  52  33 E9        30.21R
AKRON CO       PTSUNNY   81  45  28 SE17G25   30.30R
BURLINGTON CO  SUNNY     81  46  29 SE10      30.29S
LIMON CO       CLOUDY    78  54  43 SE18      30.34R
$$

...UNOFFICIAL OBSERVATIONS...

CITY           SKY/WX    TMP DP  RH WIND       PRES   REMARKS
COLBY KS       SUNNY     82  54  36 E8        30.25R
LENORA KS        N/A     84  32  15 MISG        N/A
NORTON KS      CLEAR     82  43  24 NE9       30.19R
OBERLIN KS     FAIR      84  46  26 N6        30.21
ST FRANCIS KS  SUNNY     82  41  23 NE6       30.24
TRIBUNE KS     SUNNY     81 N/A N/A SE14      30.28
WAKEENEY KS      N/A     86  40  19 MISG        N/A
TRENTON NEB      N/A     84  32  15 NE7         N/A
KIT CARSON CO    N/A     81  54  38 N12         N/A
WRAY CO          N/A     84  45  24 NE12      30.25
YUMA CO          N/A     81  47  30 E10         N/A
$$



USA.gov is the U.S. government's official web portal to all federal, state and local government web resources and services.